H1 CPF 2 NER 2023 4 15 9 105 01 glonass143 H2 2007501 9143 46805 2023 4 15 0 0 0 2023 4 18 23 45 0 900 1 1 0 0 0 1 H9 10 0 60049 0.00000 0 -8071711.676 7954987.660 22858444.748 10 0 60049 900.00000 0 -10572270.432 6740313.596 22218729.418 10 0 60049 1800.00000 0 -13057664.159 5751329.471 21147736.174 10 0 60049 2700.00000 0 -15460006.093 4996525.374 19666173.629 10 0 60049 3600.00000 0 -17712342.442 4471989.375 17802724.973 10 0 60049 4500.00000 0 -19751274.459 4161760.106 15593499.432 10 0 60049 5400.00000 0 -21519448.873 4038697.428 13081338.784 10 0 60049 6300.00000 0 -22967813.018 4065834.413 10314991.488 10 0 60049 7200.00000 0 -24057540.329 4198153.465 7348169.851 10 0 60049 8100.00000 0 -24761545.432 4384711.370 4238508.105 10 0 60049 9000.00000 0 -25065524.945 4571023.076 1046441.494 10 0 60049 9900.00000 0 -24968479.932 4701602.746 -2165971.604 10 0 60049 10800.00000 0 -24482697.745 4722553.751 -5336261.152 10 0 60049 11700.00000 0 -23633193.836 4584096.884 -8402766.313 10 0 60049 12600.00000 0 -22456637.032 4242928.668 -11305841.078 10 0 60049 13500.00000 0 -20999803.664 3664308.633 -13989020.429 10 0 60049 14400.00000 0 -19317625.922 2823786.063 -16400123.646 10 0 60049 15300.00000 0 -17470916.912 1708491.983 -18492272.711 10 0 60049 16200.00000 0 -15523868.436 317940.722 -20224805.738 10 0 60049 17100.00000 0 -13541426.874 -1335693.857 -21564067.605 10 0 60049 18000.00000 0 -11586657.407 -3227840.052 -22484062.553 10 0 60049 18900.00000 0 -9718206.984 -5322317.874 -22966956.468 10 0 60049 19800.00000 0 -7987971.912 -7572624.216 -23003419.497 10 0 60049 20700.00000 0 -6439067.099 -9923660.585 -22592802.849 10 0 60049 21600.00000 0 -5104181.004 -12313831.888 -21743146.784 10 0 60049 22500.00000 0 -4004384.015 -14677429.249 -20471019.994 10 0 60049 23400.00000 0 -3148438.855 -16947197.993 -18801193.739 10 0 60049 24300.00000 0 -2532640.467 -19056984.167 -16766157.195 10 0 60049 25200.00000 0 -2141190.664 -20944349.672 -14405483.451 10 0 60049 26100.00000 0 -1947090.364 -22553047.290 -11765058.455 10 0 60049 27000.00000 0 -1913510.582 -23835252.681 -8896187.852 10 0 60049 27900.00000 0 -1995583.201 -24753460.518 -5854599.049 10 0 60049 28800.00000 0 -2142535.010 -25281965.908 -2699357.969 10 0 60049 29700.00000 0 -2300074.042 -25407869.588 508278.363 10 0 60049 30600.00000 0 -2412926.710 -25131565.316 3706050.958 10 0 60049 31500.00000 0 -2427417.969 -24466689.555 6831906.433 10 0 60049 32400.00000 0 -2293985.005 -23439536.079 9825199.448 10 0 60049 33300.00000 0 -1969517.897 -22087960.485 12627866.647 10 0 60049 34200.00000 0 -1419428.034 -20459820.834 15185549.378 10 0 60049 35100.00000 0 -619356.688 -18611019.919 17448643.679 10 0 60049 36000.00000 0 443548.797 -16603231.031 19373257.611 10 0 60049 36900.00000 0 1769845.493 -14501402.104 20922057.857 10 0 60049 37800.00000 0 3347526.134 -12371142.022 22064989.827 10 0 60049 38700.00000 0 5152283.463 -10276097.520 22779857.878 10 0 60049 39600.00000 0 7148297.939 -8275429.320 23052754.920 10 0 60049 40500.00000 0 9289517.343 -6421491.808 22878333.378 10 0 60049 41400.00000 0 11521376.454 -4757812.073 22259912.352 10 0 60049 42300.00000 0 13782886.612 -3317451.690 21209418.702 10 0 60049 43200.00000 0 16009009.525 -2121818.810 19747162.718 10 0 60049 44100.00000 0 18133217.625 -1179979.455 17901452.039 10 0 60049 45000.00000 0 20090135.160 -488496.274 15708050.453 10 0 60049 45900.00000 0 21818150.431 -31801.039 13209491.193 10 0 60049 46800.00000 0 23261890.369 216915.180 10454257.170 10 0 60049 47700.00000 0 24374453.874 294331.952 7495843.426 10 0 60049 48600.00000 0 25119310.063 245207.711 4391719.561 10 0 60049 49500.00000 0 25471781.342 120242.403 1202212.162 10 0 60049 50400.00000 0 25420048.416 -26314.480 -2010670.854 10 0 60049 51300.00000 0 24965634.409 -139208.453 -5184450.645 10 0 60049 52200.00000 0 24123347.249 -164768.509 -8257398.422 10 0 60049 53100.00000 0 22920682.382 -53428.817 -11169742.394 10 0 60049 54000.00000 0 21396710.789 237924.299 -13864836.427 10 0 60049 54900.00000 0 19600499.063 743880.597 -16290266.964 10 0 60049 55800.00000 0 17589128.114 1488798.151 -18398876.091 10 0 60049 56700.00000 0 15425393.885 2485532.819 -20149680.550 10 0 60049 57600.00000 0 13175286.727 3734659.543 -21508668.765 10 0 60049 58500.00000 0 10905355.158 5224219.247 -22449460.501 10 0 60049 59400.00000 0 8680064.287 6930002.765 -22953816.702 10 0 60049 60300.00000 0 6559259.036 8816360.707 -23011990.030 10 0 60049 61200.00000 0 4595837.626 10837505.938 -22622909.791 10 0 60049 62100.00000 0 2833731.695 12939254.792 -21794198.096 10 0 60049 63000.00000 0 1306276.268 15061134.760 -20542017.323 10 0 60049 63900.00000 0 35036.452 17138770.996 -18890752.080 10 0 60049 64800.00000 0 -970861.604 19106452.388 -16872532.001 10 0 60049 65700.00000 0 -1714869.024 20899770.326 -14526604.655 10 0 60049 66600.00000 0 -2212617.616 22458220.192 -11898570.735 10 0 60049 67500.00000 0 -2491006.558 23727657.052 -9039496.388 10 0 60049 68400.00000 0 -2586812.277 24662503.092 -6004919.851 10 0 60049 69300.00000 0 -2544881.310 25227614.572 -2853771.823 10 0 60049 70200.00000 0 -2415983.528 25399730.387 352769.377 10 0 60049 71100.00000 0 -2254417.224 25168441.769 3552465.475 10 0 60049 72000.00000 0 -2115468.006 24536642.755 6683225.458 10 0 60049 72900.00000 0 -2052829.376 23520442.808 9684308.772 10 0 60049 73800.00000 0 -2116094.429 22148545.469 12497501.141 10 0 60049 74700.00000 0 -2348424.911 20461119.216 15068240.217 10 0 60049 75600.00000 0 -2784496.287 18508207.809 17346669.511 10 0 60049 76500.00000 0 -3448805.801 16347746.436 19288600.585 10 0 60049 77400.00000 0 -4354415.168 14043266.227 20856365.337 10 0 60049 78300.00000 0 -5502181.408 11661382.376 22019542.504 10 0 60049 79200.00000 0 -6880508.900 9269169.867 22755544.893 10 0 60049 80100.00000 0 -8465634.104 6931535.269 23050056.440 10 0 60049 81000.00000 0 -10222432.297 4708693.046 22897310.982 10 0 60049 81900.00000 0 -12105713.965 2653850.370 22300207.423 10 0 60049 82800.00000 0 -14061958.172 811195.878 21270258.872 10 0 60049 83700.00000 0 -16031411.922 -785724.854 19827376.303 10 0 60049 84600.00000 0 -17950469.177 -2115180.184 17999490.214 10 0 60049 85500.00000 0 -19754231.163 -3167921.485 15822016.820 10 0 60050 0.00000 0 -21379141.578 -3947323.008 13337178.423 10 0 60050 900.00000 0 -22765587.683 -4468987.571 10593188.937 10 0 60050 1800.00000 0 -23860356.192 -4759834.164 7643323.065 10 0 60050 2700.00000 0 -24618843.593 -4856707.729 4544882.344 10 0 60050 3600.00000 0 -25006925.339 -4804569.203 1358081.196 10 0 60050 4500.00000 0 -25002405.483 -4654343.367 -1855126.390 10 0 60050 5400.00000 0 -24595984.849 -4460516.182 -5032256.148 10 0 60050 6300.00000 0 -23791706.204 -4278584.212 -8111514.569 10 0 60050 7200.00000 0 -22606857.032 -4162465.115 -11033007.131 10 0 60050 8100.00000 0 -21071333.465 -4161979.950 -13739909.401 10 0 60050 9000.00000 0 -19226491.800 -4320514.939 -16179577.507 10 0 60050 9900.00000 0 -17123535.715 -4672962.696 -18304575.791 10 0 60050 10800.00000 0 -14821506.806 -5244030.910 -20073601.323 10 0 60050 11700.00000 0 -12384962.717 -6046990.781 -21452287.249 10 0 60050 12600.00000 0 -9881440.053 -7082918.761 -22413869.452 10 0 60050 13500.00000 0 -7378808.059 -8340464.225 -22939703.926 10 0 60050 14400.00000 0 -4942623.274 -9796153.446 -23019625.261 10 0 60050 15300.00000 0 -2633595.107 -11415217.647 -22652139.740 10 0 60050 16200.00000 0 -505267.270 -13152910.867 -21844449.745 10 0 60050 17100.00000 0 1397989.224 -14956262.886 -20612309.388 10 0 60050 18000.00000 0 3042588.985 -16766194.130 -18979714.380 10 0 60050 18900.00000 0 4406885.166 -18519904.365 -16978432.354 10 0 60050 19800.00000 0 5481815.801 -20153435.447 -14647382.744 10 0 60050 20700.00000 0 6271018.103 -21604301.036 -12031878.301 10 0 60050 21600.00000 0 6790407.637 -22814073.265 -9182742.931 10 0 60050 22500.00000 0 7067241.620 -23730818.109 -6155322.970 10 0 60050 23400.00000 0 7138707.249 -24311277.414 -3008411.207 10 0 60050 24300.00000 0 7050095.831 -24522706.121 196895.353 10 0 60050 25200.00000 0 6852640.857 -24344287.677 3398381.655 10 0 60050 26100.00000 0 6601112.153 -23768068.292 6533921.425 10 0 60050 27000.00000 0 6351268.440 -22799370.860 9542681.112 10 0 60050 27900.00000 0 6157276.335 -21456671.225 12366297.543 10 0 60050 28800.00000 0 6069205.165 -19770941.864 14950006.482 10 0 60050 29700.00000 0 6130703.490 -17784490.335 17243700.457 10 0 60050 30600.00000 0 6376955.514 -15549340.704 19202895.769 10 0 60050 31500.00000 0 6833003.661 -13125225.092 20789590.431 10 0 60050 32400.00000 0 7512508.187 -10577268.477 21972997.039 10 0 60050 33300.00000 0 8416996.452 -7973462.337 22730136.989 10 0 60050 34200.00000 0 9535634.049 -5382031.357 23046285.007 10 0 60050 35100.00000 0 10845528.272 -2868801.648 22915255.754 10 0 60050 36000.00000 0 12312552.375 -494678.756 22339527.024 10 0 60050 36900.00000 0 13892657.335 1686660.742 21330197.001 10 0 60050 37800.00000 0 15533617.546 3630769.074 19906775.938 10 0 60050 38700.00000 0 17177138.676 5304036.237 18096815.623 10 0 60050 39600.00000 0 18761240.516 6684841.769 15935382.975 10 0 60050 40500.00000 0 20222815.888 7764201.973 13464387.061 10 0 60050 41400.00000 0 21500258.849 8545886.078 10731771.747 10 0 60050 42300.00000 0 22536052.060 9045997.011 7790588.930 10 0 60050 43200.00000 0 23279204.422 9292034.927 4697969.924 10 0 60050 44100.00000 0 23687435.974 9321483.484 1514014.761 10 0 60050 45000.00000 0 23729017.300 9179979.114 -1699378.790 10 0 60050 45900.00000 0 23384185.097 8919141.389 -4879723.313 10 0 60050 46800.00000 0 22646073.260 8594157.049 -7965162.799 10 0 60050 47700.00000 0 21521119.351 8261220.873 -10895682.077 10 0 60050 48600.00000 0 20028928.492 7974942.723 -13614280.313 10 0 60050 49500.00000 0 18201599.744 7785831.495 -16068085.003 10 0 60050 50400.00000 0 16082542.783 7737963.380 -18209384.203 10 0 60050 51300.00000 0 13724834.211 7866933.885 -19996556.563 10 0 60050 52200.00000 0 11189182.126 8198180.853 -21394881.022 10 0 60050 53100.00000 0 8541583.997 8745749.848 -22377210.487 10 0 60050 54000.00000 0 5850775.474 9511554.425 -22924496.762 10 0 60050 54900.00000 0 3185576.304 10485162.819 -23026156.952 10 0 60050 55800.00000 0 612243.595 11644120.306 -22680274.686 10 0 60050 56700.00000 0 -1808057.964 12954793.965 -21893632.741 10 0 60050 57600.00000 0 -4021564.432 14373704.589 -20681576.772 10 0 60050 58500.00000 0 -5983904.362 15849290.064 -19067713.076 10 0 60050 59400.00000 0 -7661692.248 17324026.389 -17083446.420 10 0 60050 60300.00000 0 -9033658.651 18736817.551 -14767366.906 10 0 60050 61200.00000 0 -10091271.307 20025554.043 -12164497.825 10 0 60050 62100.00000 0 -10838822.911 21129732.749 -9325419.050 10 0 60050 63000.00000 0 -11292983.510 21993028.200 -6305282.986 10 0 60050 63900.00000 0 -11481837.877 22565707.172 -3162742.272 10 0 60050 64800.00000 0 -11443449.823 22806785.151 41189.811 10 0 60050 65700.00000 0 -11224015.164 22685833.920 3244323.970 10 0 60050 66600.00000 0 -10875682.310 22184364.247 6384501.311 10 0 60050 67500.00000 0 -10454133.249 21296725.431 9400797.986 10 0 60050 68400.00000 0 -10016027.616 20030483.760 12234704.648 10 0 60050 69300.00000 0 -9616418.104 18406263.764 14831257.865 10 0 60050 70200.00000 0 -9306246.422 16457058.544 17140101.796 10 0 60050 71100.00000 0 -9130025.456 14227037.539 19116459.969 10 0 60050 72000.00000 0 -9123805.262 11769900.906 20721998.804 10 0 60050 72900.00000 0 -9313508.505 9146848.356 21925566.803 10 0 60050 73800.00000 0 -9713705.465 6424246.072 22703795.683 10 0 60050 74700.00000 0 -10326880.340 3671087.729 23041552.323 10 0 60050 75600.00000 0 -11143220.134 956353.972 22932233.120 10 0 60050 76500.00000 0 -12140935.718 -1653621.176 22377895.185 10 0 60050 77400.00000 0 -13287102.501 -4097668.711 21389221.657 10 0 60050 78300.00000 0 -14538986.534 -6322084.324 19985321.396 10 0 60050 79200.00000 0 -15845801.563 -8282614.720 18193366.235 10 0 60050 80100.00000 0 -17150824.354 -9946048.688 16048072.017 10 0 60050 81000.00000 0 -18393780.407 -11291347.289 13591032.545 10 0 60050 81900.00000 0 -19513400.466 -12310266.533 10869918.498 10 0 60050 82800.00000 0 -20450040.611 -13007446.964 7937556.160 10 0 60050 83700.00000 0 -21148255.610 -13399966.887 4850903.369 10 0 60050 84600.00000 0 -21559216.718 -13516378.495 1669942.356 10 0 60050 85500.00000 0 -21642871.268 -13395268.089 -1543488.806 10 0 60051 0.00000 0 -21369752.085 -13083401.795 -4726902.761 10 0 60051 900.00000 0 -20722359.091 -12633535.705 -7818385.007 10 0 60051 1800.00000 0 -19696054.161 -12101984.330 -10757802.780 10 0 60051 2700.00000 0 -18299429.971 -11546050.564 -13487982.010 10 0 60051 3600.00000 0 -16554136.602 -11021427.181 -15955824.486 10 0 60051 4500.00000 0 -14494172.339 -10579680.500 -18113344.554 10 0 60051 5400.00000 0 -12164667.796 -10265923.328 -19918604.587 10 0 60051 6300.00000 0 -9620213.831 -10116776.087 -21336530.914 10 0 60051 7200.00000 0 -6922802.862 -10158702.609 -22339594.452 10 0 60051 8100.00000 0 -4139469.207 -10406791.018 -22908343.138 10 0 60051 9000.00000 0 -1339726.542 -10864031.198 -23031776.253 10 0 60051 9900.00000 0 1407091.206 -11521119.268 -22707553.837 10 0 60051 10800.00000 0 4034475.369 -12356797.256 -21942037.567 10 0 60051 11700.00000 0 6481265.125 -13338713.618 -20750162.702 10 0 60051 12600.00000 0 8693943.029 -14424768.375 -19155143.815 10 0 60051 13500.00000 0 10628609.023 -15564886.256 -17188020.192 10 0 60051 14400.00000 0 12252551.918 -16703143.301 -14887049.755 10 0 60051 15300.00000 0 13545354.128 -17780157.448 -12296963.287 10 0 60051 16200.00000 0 14499485.036 -18735642.547 -9468093.443 10 0 60051 17100.00000 0 15120359.677 -19511018.256 -6455395.402 10 0 60051 18000.00000 0 15425861.820 -20051965.917 -3317378.334 10 0 60051 18900.00000 0 15445352.970 -20310822.654 -114968.501 10 0 60051 19800.00000 0 15218210.316 -20248712.807 3089673.740 10 0 60051 20700.00000 0 14791956.341 -19837326.730 6234359.855 10 0 60051 21600.00000 0 14220059.901 -19060271.923 9258078.396 10 0 60051 22500.00000 0 13559502.137 -17913939.365 12102176.201 10 0 60051 23400.00000 0 12868210.339 -16407848.282 14711492.595 10 0 60051 24300.00000 0 12202468.120 -14564454.391 17035424.894 10 0 60051 25200.00000 0 11614411.043 -12418429.002 19028904.912 10 0 60051 26100.00000 0 11149712.988 -10015438.346 20653268.082 10 0 60051 27000.00000 0 10845560.411 -7410473.117 21876998.954 10 0 60051 27900.00000 0 10728999.443 -4665796.736 22676339.271 10 0 60051 28800.00000 0 10815725.162 -1848596.512 23035747.342 10 0 60051 29700.00000 0 11109363.931 971565.956 22948200.209 10 0 60051 30600.00000 0 11601279.172 3725400.577 22415332.868 10 0 60051 31500.00000 0 12270909.229 6346522.136 21447411.714 10 0 60051 32400.00000 0 13086623.791 8773963.059 20063142.282 10 0 60051 33300.00000 0 14007063.759 10954462.201 18289314.362 10 0 60051 34200.00000 0 14982909.104 12844435.253 16160290.499 10 0 60051 35100.00000 0 15959001.196 14411545.392 13717346.921 10 0 60051 36000.00000 0 16876730.941 15635809.141 11007878.746 10 0 60051 36900.00000 0 17676592.501 16510191.614 8084484.221 10 0 60051 37800.00000 0 18300794.965 17040666.540 5003945.253 10 0 60051 38700.00000 0 18695821.540 17245738.956 1826123.822 10 0 60051 39600.00000 0 18814827.534 17155451.034 -1387204.111 10 0 60051 40500.00000 0 18619775.002 16809913.475 -4573554.129 10 0 60051 41400.00000 0 18083212.758 16257425.081 -7670954.262 10 0 60051 42300.00000 0 17189625.403 15552260.650 -10619156.673 10 0 60051 43200.00000 0 15936293.211 14752221.492 -13360815.762 10 0 60051 44100.00000 0 14333625.440 13916052.920 -15842609.031 10 0 60051 45000.00000 0 12404951.989 13100838.639 -18016278.273 10 0 60051 45900.00000 0 10185781.227 12359482.748 -19839570.479 10 0 60051 46800.00000 0 7722554.375 11738386.183 -21277060.049 10 0 60051 47700.00000 0 5070947.944 11275415.890 -22300836.395 10 0 60051 48600.00000 0 2293794.688 10998252.441 -22891043.893 10 0 60051 49500.00000 0 -541290.741 10923185.605 -23036264.119 10 0 60051 50400.00000 0 -3364482.893 11054408.291 -22733733.402 10 0 60051 51300.00000 0 -6106406.949 11383838.249 -21989391.937 10 0 60051 52200.00000 0 -8700780.368 11891474.587 -20817763.887 10 0 60051 53100.00000 0 -11086925.609 12546273.721 -19241671.072 10 0 60051 54000.00000 0 -13212050.254 13307507.498 -17291785.953 10 0 60051 54900.00000 0 -15033200.655 14126546.023 -15006032.640 10 0 60051 55800.00000 0 -16518808.779 14948989.843 -12428847.568 10 0 60051 56700.00000 0 -17649768.972 15717061.427 -9610314.162 10 0 60051 57600.00000 0 -18420001.003 16372154.978 -6605188.281 10 0 60051 58500.00000 0 -18836477.154 16857436.871 -3471833.475 10 0 60051 59400.00000 0 -18918713.653 17120386.856 -271086.816 10 0 60051 60300.00000 0 -18697749.097 17115172.662 2934922.462 10 0 60051 61200.00000 0 -18214654.012 16804757.619 6083978.384 10 0 60051 62100.00000 0 -17518635.299 16162652.196 9114984.125 10 0 60051 63000.00000 0 -16664816.155 15174235.348 11969144.930 10 0 60051 63900.00000 0 -15711785.499 13837589.631 14591105.109 10 0 60051 64800.00000 0 -14719020.357 12163814.461 16930017.307 10 0 60051 65700.00000 0 -13744289.691 10176803.652 18940523.718 10 0 60051 66600.00000 0 -12841148.694 7912495.652 20583630.725 10 0 60051 67500.00000 0 -12056628.507 5417626.785 21827460.660 10 0 60051 68400.00000 0 -11429217.968 2748038.243 22647866.762 10 0 60051 69300.00000 0 -10987221.689 -33393.978 23028899.926 10 0 60051 70200.00000 0 -10747563.035 -2859121.537 22963118.631 10 0 60051 71100.00000 0 -10715082.014 -5659481.886 22451736.157 10 0 60051 72000.00000 0 -10882357.586 -8365347.214 21504602.110 10 0 60051 72900.00000 0 -11230062.058 -10910755.442 20140018.219 10 0 60051 73800.00000 0 -11727833.099 -13235415.098 18384391.279 10 0 60051 74700.00000 0 -12335627.266 -15286980.710 16271729.149 10 0 60051 75600.00000 0 -13005498.648 -17023004.684 13842988.669 10 0 60051 76500.00000 0 -13683728.257 -18412484.712 11145287.218 10 0 60051 77400.00000 0 -14313214.697 -19436942.342 8230992.505 10 0 60051 78300.00000 0 -14836025.310 -20090987.764 5156707.756 10 0 60051 79200.00000 0 -15195999.838 -20382347.316 1982171.751 10 0 60051 80100.00000 0 -15341295.995 -20331352.760 -1230904.753 10 0 60051 81000.00000 0 -15226768.498 -19969914.146 -4420043.199 10 0 60051 81900.00000 0 -14816079.880 -19340020.009 -7523217.982 10 0 60051 82800.00000 0 -14083452.641 -18491828.731 -10480069.189 10 0 60051 83700.00000 0 -13014987.398 -17481432.315 -13233082.924 10 0 60051 84600.00000 0 -11609490.116 -16368387.712 -15728715.506 10 0 60051 85500.00000 0 -9878772.317 -15213120.601 -17918439.047 10 0 60052 0.00000 0 -7847410.743 -14074311.904 -19759687.531 10 0 60052 900.00000 0 -5551974.396 -13006377.074 -21216685.822 10 0 60052 1800.00000 0 -3039753.315 -12057146.142 -22261143.155 10 0 60052 2700.00000 0 -367037.945 -11265840.170 -22872801.238 10 0 60052 3600.00000 0 2402977.102 -10661430.550 -23039824.191 10 0 60052 4500.00000 0 5202579.053 -10261449.090 -22759024.270 10 0 60052 5400.00000 0 7962113.795 -10071298.399 -22035919.257 10 0 60052 6300.00000 0 10612646.885 -10084090.838 -20884620.786 10 0 60052 7200.00000 0 13088598.644 -10281022.046 -19327556.044 10 0 60052 8100.00000 0 15330244.432 -10632262.578 -17395028.384 10 0 60052 9000.00000 0 17285976.820 -11098329.406 -15124625.469 10 0 60052 9900.00000 0 18914236.282 -11631878.937 -12560486.400 10 0 60052 10800.00000 0 20185030.888 -12179845.393 -9752442.096 10 0 60052 11700.00000 0 21080982.613 -12685833.959 -6755045.562 10 0 60052 12600.00000 0 21597857.635 -13092667.298 -3626511.015 10 0 60052 13500.00000 0 21744559.624 -13344977.600 -427582.563 10 0 60052 14400.00000 0 21542587.480 -13391734.441 2779645.414 10 0 60052 15300.00000 0 21024981.406 -13188601.389 5932933.047 10 0 60052 16200.00000 0 20234802.609 -12700021.630 8971101.379 10 0 60052 17100.00000 0 19223211.351 -11900944.281 11835216.897 10 0 60052 18000.00000 0 18047224.767 -10778118.223 14469731.246 10 0 60052 18900.00000 0 16767249.031 -9330898.466 16823554.235 10 0 60052 19800.00000 0 15444489.654 -7571530.451 18851039.732 10 0 60052 20700.00000 0 14138348.474 -5524899.480 20512865.843 10 0 60052 21600.00000 0 12903916.210 -3227754.668 21776792.956 10 0 60052 22500.00000 0 11789665.158 -727438.540 22618285.600 10 0 60052 23400.00000 0 10835438.142 1919826.143 23020986.617 10 0 60052 24300.00000 0 10070817.366 4651022.545 22977034.867 10 0 60052 25200.00000 0 9513940.947 7398713.695 22487220.481 10 0 60052 26100.00000 0 9170816.367 10093607.019 21560974.515 10 0 60052 27000.00000 0 9035159.406 12667204.286 20216192.828 10 0 60052 27900.00000 0 9088765.294 15054428.022 18478896.919 10 0 60052 28800.00000 0 9302396.660 17196116.056 16382737.466 10 0 60052 29700.00000 0 9637151.170 19041281.013 13968349.267 10 0 60052 30600.00000 0 10046251.526 20549040.936 11282569.191 10 0 60052 31500.00000 0 10477182.564 21690140.604 8377531.564 10 0 60052 32400.00000 0 10874085.219 22447999.898 5309658.034 10 0 60052 33300.00000 0 11180306.003 22819245.285 2138561.285 10 0 60052 34200.00000 0 11340993.691 22813702.052 -1074115.965 10 0 60052 35100.00000 0 11305632.548 22453847.699 -4265903.723 10 0 60052 36000.00000 0 11030403.920 21773749.707 -7374725.256 10 0 60052 36900.00000 0 10480275.041 20817532.773 -10340110.800 10 0 60052 37800.00000 0 9630725.447 19637440.651 -13104380.065 10 0 60052 38700.00000 0 8469036.697 18291574.851 -15613769.740 10 0 60052 39600.00000 0 6995089.672 16841406.180 -17819483.452 10 0 60052 40500.00000 0 5221634.632 15349164.517 -19678643.341 10 0 60052 41400.00000 0 3174021.523 13875217.138 -21155124.630 10 0 60052 42300.00000 0 889400.881 12475546.174 -22220257.022 10 0 60052 43200.00000 0 -1584572.094 11199431.205 -22853379.568 10 0 60052 44100.00000 0 -4191476.890 10087434.083 -23042238.675 10 0 60052 45000.00000 0 -6868238.494 9169770.047 -22783221.964 10 0 60052 45900.00000 0 -9547522.320 8465132.772 -22081423.903 10 0 60052 46800.00000 0 -12160314.066 7980021.685 -20950542.344 10 0 60052 47700.00000 0 -14638577.669 7708598.793 -19412608.225 10 0 60052 48600.00000 0 -16917881.298 7633079.919 -17497553.865 10 0 60052 49500.00000 0 -18939882.678 7724642.839 -15242628.282 10 0 60052 50400.00000 0 -20654570.814 7944813.101 -12691670.895 10 0 60052 51300.00000 0 -22022171.370 8247268.264 -9894257.678 10 0 60052 52200.00000 0 -23014636.951 8579983.685 -6904736.358 10 0 60052 53100.00000 0 -23616660.818 8887628.653 -3781169.455 10 0 60052 54000.00000 0 -23826172.550 9114111.121 -584205.833 10 0 60052 54900.00000 0 -23654295.847 9205163.072 2624097.162 10 0 60052 55800.00000 0 -23124771.152 9110856.882 5781477.867 10 0 60052 56700.00000 0 -22272868.251 8787946.020 8826677.215 10 0 60052 57600.00000 0 -21143835.228 8201930.913 11700624.910 10 0 60052 58500.00000 0 -19790949.518 7328762.423 14347581.828 10 0 60052 59400.00000 0 -18273253.229 6156110.670 16716216.737 10 0 60052 60300.00000 0 -16653067.826 4684145.206 18760596.836 10 0 60052 61200.00000 0 -14993392.278 2925792.945 20441073.426 10 0 60052 62100.00000 0 -13355293.242 906462.028 21725046.178 10 0 60052 63000.00000 0 -11795395.957 -1336758.084 22587591.876 10 0 60052 63900.00000 0 -10363580.096 -3756388.278 23011945.959 10 0 60052 64800.00000 0 -9100976.146 -6296290.921 22989828.015 10 0 60052 65700.00000 0 -8038345.301 -8893769.997 22521605.046 10 0 60052 66600.00000 0 -7194909.974 -11481954.433 21616289.258 10 0 60052 67500.00000 0 -6577683.283 -13992366.943 20291370.016 10 0 60052 68400.00000 0 -6181325.241 -16357572.850 18572482.574 10 0 60052 69300.00000 0 -5988531.444 -18513799.603 16492919.156 10 0 60052 70200.00000 0 -5970937.853 -20403418.590 14092990.945 10 0 60052 71100.00000 0 -6090503.585 -21977186.140 11419252.439 10 0 60052 72000.00000 0 -6301313.433 -23196150.192 8523602.467 10 0 60052 72900.00000 0 -6551723.944 -24033142.784 5462278.783 10 0 60052 73800.00000 0 -6786762.110 -24473795.581 2294765.479 10 0 60052 74700.00000 0 -6950674.744 -24517035.534 -917365.404 10 0 60052 75600.00000 0 -6989519.902 -24175039.640 -4111655.206 10 0 60052 76500.00000 0 -6853689.697 -23472650.584 -7225978.926 10 0 60052 77400.00000 0 -6500256.552 -22446277.944 -10199759.899 10 0 60052 78300.00000 0 -5895042.341 -21142331.454 -12975154.417 10 0 60052 79200.00000 0 -5014321.594 -19615252.700 -15498182.482 10 0 60052 80100.00000 0 -3846085.504 -17925228.566 -17719782.037 10 0 60052 81000.00000 0 -2390812.175 -16135683.122 -19596765.794 10 0 60052 81900.00000 0 -661709.472 -14310653.790 -21092661.882 10 0 60052 82800.00000 0 1315580.786 -12512162.224 -22178422.051 10 0 60052 83700.00000 0 3503805.824 -10797690.293 -22832983.948 10 0 60052 84600.00000 0 5855418.540 -9217866.684 -23043676.965 10 0 60052 85500.00000 0 8314333.400 -7814460.617 -22806464.234 99